Location: Seclusion Ranch
(37.6167°N, 104.1333°W)
Time: 22:32:27
(UTC-07:00)

Tiangong 2 - Visible Passes

Search period start: 15 February 2019 00:00
Search period end: 25 February 2019 00:00
Orbit: 381 x 390 km, 42.8° (Epoch: 15 February)

Date Brightness Start Highest point End Pass type
(mag) Time Alt. Az. Time Alt. Az. Time Alt. Az.
15 Feb 2.0 19:03:25 10° WNW 19:06:19 35° N 19:06:19 35° N visible
16 Feb 2.3 18:04:09 10° WNW 18:07:01 31° N 18:09:52 10° ENE visible
16 Feb 3.5 19:40:55 10° WNW 19:42:14 23° WNW 19:42:14 23° WNW visible
17 Feb 1.5 18:41:43 10° WNW 18:44:47 47° NNE 18:45:58 30° ENE visible
18 Feb 1.6 19:19:13 10° WNW 19:22:01 57° WSW 19:22:01 57° WSW visible
19 Feb 1.0 18:19:58 10° WNW 18:23:07 75° NNE 18:25:54 13° ESE visible
19 Feb 4.2 19:57:22 10° W 19:58:10 14° WSW 19:58:10 14° WSW visible
20 Feb 2.5 18:57:38 10° W 19:00:32 33° SSW 19:02:11 19° SSE visible
22 Feb 3.7 18:36:21 10° W 18:38:35 18° SW 18:40:49 10° S visible
